WetterOnline ( http://www.wetteronline.de )

Wetter aktuell Bad Salzuflen

Aktuelles Wetter: Bad Salzuflen (139m)

6-stündlich | Neueste Meldungen
Ortszeit Temperatur Wetter
Di, 21.08. 8:00 16.3° C leicht bewölkt
Di, 21.08. 2:00 17.7° C bedeckt
Mo, 20.08. 20:00 21.1° C bedeckt
Mo, 20.08. 14:00 20.9° C bedeckt
Mo, 20.08. 8:00 18.2° C bewölkt
Mo, 20.08. 2:00 19.1° C bedeckt
So, 19.08. 20:00 23.8° C wolkig
So, 19.08. 14:00 24.8° C fast wolkenlos
Ortszeit Temperatur Wetter
Di, 21.08. 12:30 23.2° C bewölkt
Di, 21.08. 12:20 23.2° C bewölkt
Di, 21.08. 12:10 24.0° C bewölkt
Di, 21.08. 12:00 23.6° C bewölkt
Di, 21.08. 11:50 23.6° C bedeckt
Di, 21.08. 11:40 23.0° C leicht bewölkt
Di, 21.08. 11:30 22.8° C leicht bewölkt
Di, 21.08. 11:00 21.6° C wolkig
Di, 21.08. 10:30 22.6° C wolkig
Di, 21.08. 10:00 20.7° C fast wolkenlos
Di, 21.08. 9:30 20.2° C wolkenlos
Ortszeit Relative Feuchte Sichtweite
Di, 21.08. 8:00 87% 60 km
Di, 21.08. 2:00 87% 55 km
Mo, 20.08. 20:00 69% 70 km
Mo, 20.08. 14:00 74% 22 km
Mo, 20.08. 8:00 85% 25 km
Mo, 20.08. 2:00 69% 30 km
So, 19.08. 20:00 43% 65 km
So, 19.08. 14:00 46% 29 km
Ortszeit Relative Feuchte Sichtweite
Di, 21.08. 12:30 56% 65 km
Di, 21.08. 12:20 56% -
Di, 21.08. 12:10 54% -
Di, 21.08. 12:00 55% 30 km
Di, 21.08. 11:50 55% -
Di, 21.08. 11:40 57% -
Di, 21.08. 11:30 60% 40 km
Di, 21.08. 11:00 64% 40 km
Di, 21.08. 10:30 63% 30 km
Di, 21.08. 10:00 70% 35 km
Di, 21.08. 9:30 73% 30 km
Ortszeit Niederschlagsmenge Niederschlagsart
Di, 21.08. 8:00 0.0 l/m2 in 12 Std. -
Di, 21.08. 2:00 0.0 l/m2 in 6 Std. -
Mo, 20.08. 20:00 0.2 l/m2 in 12 Std. Regen
Mo, 20.08. 14:00 0.2 l/m2 in 6 Std. Regen
Mo, 20.08. 8:00 0.1 l/m2 in 12 Std. Sprühregen
Mo, 20.08. 2:00 0.0 l/m2 in 6 Std. -
So, 19.08. 20:00 0.0 l/m2 in 12 Std. -
So, 19.08. 14:00 0.0 l/m2 in 6 Std. -
Ortszeit Niederschlagsmenge Niederschlagsart
Di, 21.08. 12:30 0.0 l/m2 in 1 Std. -
Di, 21.08. 12:20 keine Meldung -
Di, 21.08. 12:10 keine Meldung -
Di, 21.08. 12:00 0.0 l/m2 in 1 Std. -
Di, 21.08. 11:50 keine Meldung -
Di, 21.08. 11:40 keine Meldung -
Di, 21.08. 11:30 0.0 l/m2 in 1 Std. -
Di, 21.08. 11:00 0.0 l/m2 in 1 Std. -
Di, 21.08. 10:30 0.0 l/m2 in 1 Std. -
Di, 21.08. 10:00 0.0 l/m2 in 1 Std. -
Di, 21.08. 9:30 0.0 l/m2 in 1 Std. -
Ortszeit Stärke Spitze Richtung
km/h Bft. km/h Grad Sektor
Di, 21.08. 8:00 4 1 7 50° NO
Di, 21.08. 2:00 4 1 18 20° N
Mo, 20.08. 20:00 7 2 22 330° NW
Mo, 20.08. 14:00 9 2 24 240° SW
Mo, 20.08. 8:00 7 2 25 220° SW
Mo, 20.08. 2:00 4 1 18 190° S
So, 19.08. 20:00 11 2 39 250° W
So, 19.08. 14:00 11 2 32 210° SW
Ortszeit Stärke Spitze Richtung
km/h Bft. km/h Grad Sektor
Di, 21.08. 12:30 9 2 19 340° N
Di, 21.08. 12:20 9 2 - 340° N
Di, 21.08. 12:10 7 2 - 100° O
Di, 21.08. 12:00 6 1 15 70° O
Di, 21.08. 11:50 6 1 - 70° O
Di, 21.08. 11:40 7 2 - 40° NO
Di, 21.08. 11:30 7 2 14 10° N
Di, 21.08. 11:00 7 2 14 340° N
Di, 21.08. 10:30 7 2 11 110° O
Di, 21.08. 10:00 4 1 11 70° O
Di, 21.08. 9:30 6 1 9 90° O
Ortszeit Untergrenze Bedeckung Gattung
total tief tief mittel hoch
Di, 21.08. 8:00 10500 m 3/8 0/8 - - -
Di, 21.08. 2:00 990 m 8/8 8/8 - - -
Mo, 20.08. 20:00 1410 m 8/8 8/8 - - -
Mo, 20.08. 14:00 510 m 8/8 8/8 - - -
Mo, 20.08. 8:00 1200 m 7/8 7/8 - - -
Mo, 20.08. 2:00 1110 m 8/8 8/8 - - -
So, 19.08. 20:00 - 8/8 - - - -
So, 19.08. 14:00 12000 m 1/8 0/8 - - -
Ortszeit Bedeckungsgrad in Achtel und Wolkenuntergrenze
Di, 21.08. 12:30 7(990m) 7(1440m)
Di, 21.08. 12:20 7(990m) 7(1440m)
Di, 21.08. 12:10 7(990m) 7(2400m)
Di, 21.08. 12:00 6(960m) 7(2400m)
Di, 21.08. 11:50 9 9 9
Di, 21.08. 11:40 1(810m) 2(2400m)
Di, 21.08. 11:30 3(1050m)
Di, 21.08. 11:00 7(660m) 8(840m) 8(1020m)
Di, 21.08. 10:30 6(660m) 6(870m)
Di, 21.08. 10:00 1(390m)
Di, 21.08. 9:30 1(390m)
Ortszeit Luftdruck NN (hPa) Tendenz (hPa in 3 Std.)
Di, 21.08. 8:00 1022 + 0,5
Di, 21.08. 2:00 1021 + 0,8
Mo, 20.08. 20:00 1019 + 0,3
Mo, 20.08. 14:00 1019 + 0,4
Mo, 20.08. 8:00 1018 + 0,6
Mo, 20.08. 2:00 1018 0,0
So, 19.08. 20:00 1017 - 0,7
So, 19.08. 14:00 1019 - 1,6
Ortszeit Luftdruck NN (hPa) Tendenz (hPa in 3 Std.)
Di, 21.08. 12:30 1021 - 0,4
Di, 21.08. 12:20 1021 keine Meldung
Di, 21.08. 12:10 1021 keine Meldung
Di, 21.08. 12:00 1021 - 0,2
Di, 21.08. 11:50 1021 keine Meldung
Di, 21.08. 11:40 1022 keine Meldung
Di, 21.08. 11:30 1022 + 0,4
Di, 21.08. 11:00 1022 + 0,6
Di, 21.08. 10:30 1022 + 1,0
Di, 21.08. 10:00 1022 + 1,1
Di, 21.08. 9:30 1022 + 1,1
Ortszeit Schneehöhe (cm)
Di, 21.08. 8:00 -
Di, 21.08. 2:00 -
Mo, 20.08. 20:00 -
Mo, 20.08. 14:00 -
Mo, 20.08. 8:00 -
Mo, 20.08. 2:00 -
So, 19.08. 20:00 -
So, 19.08. 14:00 -
Ortszeit Schneehöhe (cm)
Di, 21.08. 12:30 -
Di, 21.08. 12:20 -
Di, 21.08. 12:10 -
Di, 21.08. 12:00 -
Di, 21.08. 11:50 -
Di, 21.08. 11:40 -
Di, 21.08. 11:30 -
Di, 21.08. 11:00 -
Di, 21.08. 10:30 -
Di, 21.08. 10:00 -
Di, 21.08. 9:30 -
Link zu dieser Seite / Seite empfehlen

Das Wetter in ...